Find Resurs-P No. 5

NORAD ID: 62430 Int'l Des: 2024-250 Owner: TSSKBP Country: RU operational
LEOCIRCULARRETROGRADESSO

Live Position

Loading 3D Globe...

About Resurs-P No. 5

Description loading...

Upcoming Passes

Passes for default location (London). Set your location on the main map for personalized predictions.

Altitude History

Loading altitude history...

Two-Line Element Set

1 62430U 24250A 26104.62024919 .00002153 00000-0 69675-4 0 9992
2 62430 97.2778 31.0434 0000836 108.8335 251.2998 15.33132054 72818
Epoch: Apr 14, 2026 • Age: 8 hours

Current Status

Altitude 490.8 km
Velocity 7.62 km/s
Sub-Earth Point -61.77°S, 134.76°W
Launch Date Dec 25, 2024
Age 1.3 years
Type other

Technical Details

Classification Payload
Mass 6000.00 kg
Dry Mass 5800.00 kg
Total Mass 6000.00 kg
Length 7.90 m
Diameter 2.70 m
Span 13.00 m
Shape Cy+2 pan
Manufacturer TSSKBP
Bus Type Resurs P
Phase Status In Orbit
Owner/State TSSKBP/RU

Most Searched